www.pogodaiklimat.ru
Время
и дата
05:51 31.01
06:18 31.01
06:51 31.01
07:51 31.01
08:07 31.01
08:51 31.01
09:00 31.01
09:51 31.01
10:44 31.01
10:51 31.01
11:01 31.01
11:51 31.01
11:58 31.01
12:29 31.01
12:38 31.01
12:46 31.01
12:51 31.01
13:51 31.01
14:42 31.01
14:51 31.01
15:51 31.01
16:51 31.01
17:51 31.01
18:51 31.01
19:51 31.01
20:51 31.01
21:51 31.01
22:51 31.01
23:51 31.01
00:51 01.02
01:07 01.02
01:51 01.02
02:11 01.02
02:51 01.02
03:51 01.02
04:51 01.02
05:51 01.02
06:51 01.02
07:51 01.02
08:51 01.02
09:51 01.02
10:51 01.02
11:51 01.02
12:29 01.02
12:51 01.02
13:51 01.02
14:35 01.02
14:51 01.02
Ветер
(напр.,м/с)
Видим. Явления Облачность Т
(С)
Тd
(С)
f
(%)
Тe
(С)
Тes
(С)
Комфортность P
(гПа)
Po
(гПа)
Тmin
(С)
Tmax
(С)
R
(мм)
R24
(мм)
S
(см)
ЮВ 5 6 км дымка 10/10 120 м -3.3 -4.4 92 -10 -10 1023.0 894.4
В 4 6 км дымка 10/10 150 м -3.3 -4.4 92 -10 -10 894.4
В 6 6 км дымка 10/10 150 м -3.9 -5.0 92 -12 -12 1023.6 894.7
ЮВ 5 5 км дымка н/о -4.4 -5.6 91 -12 -12 1024.9 895.6
ЮВ 4 5 км дымка 10/10 150 м -4.4 -5.6 91 -11 -11 895.9
ЮВ 6 5 км дымка н/о -3.9 -5.6 88 -12 -12 1025.6 896.5
ЮВ 5 5 км дымка 10/10 150 м -3.9 -5.6 88 -11 -11 896.5
ЮВ 4 5 км 10/10 210 м -3.9 -5.6 88 -10 -10 1025.8 896.5
ЮВ 4 5 км 10/10 300 м -3.3 -5.6 84 -9 -9 896.8
ЮВ 4 5 км 10/10 240 м -2.8 -5.0 85 -9 -9 1025.8 896.8 -4.4 -2.8
ЮВ 4 16 км 10/10 240 м -2.8 -5.6 81 -9 -9 896.5
Ю 4 16 км 10/10 240 м -2.2 -5.0 81 -8 -8 1024.9 896.2
ЮВ 4 16 км 10/10 330 м -1.7 -5.0 78 -7 -7 895.9
Ю 4 16 км 10/10 300 м -1.7 -4.4 82 -7 -7 895.0
Ю 4 16 км 10/10 360 м -1.7 -5.0 78 -7 -7 895.0
Ю 3 16 км 10/10 300 м -2.0 -4.0 86 -7 -7 894.7
Ю 3 16 км 10/10 360 м -1.7 -4.4 82 -7 -7 1023.3 894.7
ЮЗ 4 16 км 10/10 450 м -1.7 -5.0 78 -7 -7 1022.7 894.1
ЮЗ 4 16 км 10/10 420 м -1.7 -5.0 78 -7 -7 893.5
ЮЗ 3 16 км 10/10 420 м -1.7 -5.0 78 -7 -7 1022.2 893.5
ЮЗ 3 16 км 10/10 360 м -1.7 -5.6 75 -6 -6 1022.7 893.8
Ю 3 16 км 10/10 420 м -1.7 -5.0 78 -7 -7 1023.1 894.1 -2.8 -1.1
ЮЗ 2 16 км 10/10 390 м -1.7 -5.6 75 -5 -5 1023.4 894.4
ЮЗ 3 16 км 10/10 390 м -1.7 -5.6 75 -6 -6 1023.7 894.4
ЮЗ 3 16 км 10/10 390 м -1.7 -5.0 78 -7 -7 1024.4 895.0
ЮЗ 2 16 км 10/10 360 м -1.7 -5.0 78 -5 -5 1024.1 895.0
Ю 2 16 км 10/10 360 м -2.2 -5.0 81 -6 -6 1024.2 895.0
Ю 3 16 км 10/10 330 м -2.2 -5.6 77 -7 -7 1024.2 895.3 -2.2 -1.7
Ю 3 16 км 10/10 360 м -2.2 -5.0 81 -7 -7 1024.7 895.6
Ю 3 14 км 10/10 300 м -2.2 -5.0 81 -7 -7 1023.6 894.7
ЮВ 3 14 км 10/10 270 м -2.2 -5.0 81 -7 -7 895.0
ЮВ 3 16 км 10/10 270 м -2.2 -5.6 77 -7 -7 1023.8 895.0
Ю 2 16 км 10/10 330 м -2.2 -5.6 77 -6 -6 895.3
ЮЗ 3 16 км 10/10 360 м -2.2 -5.6 77 -7 -7 1023.9 895.0
Ю 2 16 км 10/10 330 м -2.2 -5.6 77 -6 -6 1023.5 894.7
ЮЗ 2 16 км 10/10 300 м -2.2 -5.6 77 -6 -6 1023.6 894.7 -2.2 -1.7
З 2 16 км 10/10 330 м -2.2 -5.6 77 -6 -6 1023.9 895.0
штиль 0 16 км 10/10 300 м -2.2 -5.6 77 -3 -3 1023.6 894.7
штиль 0 16 км 10/10 330 м -2.2 -5.0 81 -3 -3 1024.2 895.3
ЮЗ 3 16 км 10/10 330 м -1.7 -5.0 78 -7 -7 1024.8 895.9
штиль 0 16 км 10/10 300 м -1.1 -4.4 78 -2 -2 1024.0 895.0
Ю 2 16 км 10/10 330 м -0.6 -4.4 75 -4 -4 1023.8 895.0 -2.2 -0.6
Ю 4 16 км 10/10 360 м 0.0 -4.4 72 -5 -5 1023.0 894.4
Ю 6 16 км 10/8 450 m
[Ac]
+0.6 -4.4 69 -6 -5 894.4
Ю 5 16 км 10/8 450 m
[Ac]
+0.6 -4.4 69 -5 -5 1021.6 893.2
Ю 6 16 км 10/5 450 m
[Ac]
0.0 -3.9 75 -6 -6 1021.2 892.9
Ю 4 16 км 10/2 270 m
[Ac]
0.0 -3.9 75 -5 -4 892.0
Ю 4 16 км 10/10 330 м 0.0 -3.9 75 -5 -5 1020.6 892.3
Местоположение метеостанции Roswell Industrial Air Center Airport: широта 33.3075 долгота -104.5083 высота над уровнем моря 1112 м.
В архиве по умолчанию представлена погода в Росвелле за последние 1-2 суток. Обновление информации о фактической погоде в базе происходит ежечасно! Архивные данные за месяц целиком и за предыдущие месяцы Вы можете получить, выбрав интересующий диапазон дат из раскрывающегося списка и нажав кнопку "Ввод!".
Внимание! Архив погоды МЕТАР в базе сайта по станциям, не включенным в климатический монитор, хранится не более 60 дней. Нет смысла пытаться выбрать более раннюю дату.
*Определитесь, кто Вы:
Внимание! Время в таблицах - местное (без учета летнего времени). Для получения всемирного времени необходимо вычесть поправку, которая равна -7 ч.
Смотрите также архив погоды в соседних городах и на ближайших метеорологических станциях:
Партнеры нашего сайта:      
Пояснения к столбцам:
  • Ветер - указаны скорость ветра в м/с - средняя за 10 мин, порывы в срок и между сроками (в фигурных скобках) и направление, откуда дует ветер: С - северный,
  • СВ - северо-восточный, В - восточный, ЮВ - юго-восточный, Ю - южный, ЮЗ - юго-западный, З - западный, СЗ - северо-западный.
  • Видимость - горизонтальная дальность видимости в метрах или километрах. При видимости от 1 до 10 км при отсутствии осадков обычно наблюдается дымка, при ухудшении видимости до 1 км и менее - туман. В сухую погоду видимость может ухудшаться дымом, пылью или мглою.
  • Явления - указаны атмосферные явления, наблюдавшиеся в срок или в последний час перед сроком; фигурными скобками обозначены явления, наблюдавшиеся между сроками (за 1-3 часа до срока); квадратными скобками обозначены град или гололедные отложения с указанием их диаметра в мм.
  • Облачность - указаны через наклонную черту общая и нижняя облачность в баллах и высота нижней границы облаков в метрах; квадратными скобками обозначены формы облаков: Ci - перистые, Cs - перисто-слоистые, Cc - перисто-кучевые, Ac - высококучевые, As - высокослоистые, Sc - слоисто-кучевые, Ns - слоисто-дождевые, Cu - кучевые, Cb - кучево-дождевые. Подробнее классификацию облаков см. в Атласе облаков (PDF).
  • T - Температура воздуха - температура, измеренная на высоте 2 м над землей.
  • Td - Температура точки росы - температура, при понижении до которой содержащийся в воздухе водяной пар достигнет насыщения.
  • f - Относительная влажность воздуха - влажноcть воздуха, измеренная на высоте 2 м над землей.
  • Te - Эффективная температура - температура, которую ощущает одетый по сезону человек в тени. Характеристика душности погоды. При расчете учитывается влияние влажности воздуха и скорости ветра на теплоощущения человека.
  • Tes - Эффективная температура на солнце - температура, которую ощущает человек, с поправкой на солнечный нагрев. Характеристика знойности погоды. Зависит от высоты солнца над горизонтом, облачности и скорости ветра. Ночью, в пасмурную погоду, а также при ветре 12 м/с и более поправка равна нулю.
  • P - Атмосферное давление - приведенное к уровню моря атмосферное давление.
  • Po - Атмосферное давление - измеренное на уровне метеостанции атмосферное давление.
  • Tmin - Минимальная температура - минимум температуры воздуха на высоте 2 м над землей.
  • Tmax - Максимальная температура - максимум температуры воздуха на высоте 2 м над землей.
  • R - Количество осадков - Количество выпавших осадков за период времени, мм. При наведении курсора мыши на число - период времени, за который выпало указанное количество осадков.
  • R24 - Количество осадков - Количество выпавших осадков за 24 часа, мм.
  • S - Снежный покров - Высота снежного покрова, см. При наведении курсора мыши на число - состояние снежного покрова и степень покрытия местности в баллах.